Lexington Weather

Lexington, Massachusetts, USA

69°F
8/17/2022 7:33pm 
  • Lexington Conditions: Overcast
  • Temperature: 69.4°F / 20.8°CColder 0.4°F than last hour.
  • Dew Point: 57.2°FDecreased 1.6°Fsince last hour.
  • Relative Humidity: 65%Decreased 3.0% since last hour.
  • Wind: Calm, 10-min avg: Calm, gust: None
  • Barometer: 29.84 inFalling 0.02  inHg/hr Falling Slowly
  • Visibility: 10 miles
  • Rain Today: 0.00 in
  •   

Regional Weather Roundup
for Boston, MA

        
000
ASUS41 KBOX 151710
RWRBOX

REGIONAL WEATHER ROUNDUP
NATIONAL WEATHER SERVICE BOSTON/NORTON MA
100 PM EDT MON AUG 15 2022

NOTE:  "FAIR" INDICATES FEW OR NO CLOUDS BELOW 12,000 FEET WITH NO 
SIGNIFICANT WEATHER AND/OR OBSTRUCTIONS TO VISIBILITY.

MAZALL-151800-
EASTERN MASSACHUSETTS
  
CITY           SKY/WX    TMP DP  RH WIND       PRES   REMARKS
BOSTON         PTSUNNY   74  61  63 NE10      30.02S                  
BEVERLY        MOSUNNY   80  52  37 SE10      30.01F                  
LAWRENCE       LGT RAIN  85  52  32 E8        30.03S                  
BEDFORD        MOSUNNY   83  50  31 VRB7      29.99F                  
BLUE HILL      NOT AVBL                                               
NORWOOD        MOSUNNY   83  51  33 NE6       30.00S                  
MARSHFIELD     MOSUNNY   75  59  57 NE7       30.02S                  
PLYMOUTH       MOSUNNY   80  58  46 NE9       30.01S                  
TAUNTON          N/A    N/A N/A N/A MISG      29.99F                  
NEW BEDFORD    MOSUNNY   81  58  45 SE12      30.00S                  
$$

MAZALL-151800-
CAPE COD AND THE ISLANDS
  
CITY           SKY/WX    TMP DP  RH WIND       PRES   REMARKS
FALMOUTH       MOSUNNY   75  55  50 SE12      30.02S                  
HYANNIS        PTSUNNY   78  54  43 SE7       30.01S                  
CHATHAM        PTSUNNY   76  57  51 VRB6      30.03F                  
NANTUCKET      PTSUNNY   76  63  64 SE12      30.02S                  
MARTHAS VNYRD  MOSUNNY   76  58  53 S8        30.01F                  
$$
 
MAZALL-151800-
CENTRAL AND WESTERN MASSACHUSETTS
  
CITY           SKY/WX    TMP DP  RH WIND       PRES   REMARKS
WORCESTER      MOSUNNY   79  48  33 NE7       30.03F                  
FITCHBURG      PTSUNNY   81  46  29 E5        30.02F                  
ORANGE         MOSUNNY   81  49  32 NE8       30.02F                  
SPRINGFIELD    PTSUNNY   81  49  32 NW5       29.97F                  
WESTFIELD      MOSUNNY   84  46  26 NE8       29.99F                  
NORTH ADAMS    SUNNY     77  57  50 SW5       30.00S                  
PITTSFIELD     CLOUDY    77  50  38 W3        30.01S                  
$$
 
RIZALL-151800-
RHODE ISLAND
  
CITY           SKY/WX    TMP DP  RH WIND       PRES   REMARKS
PROVIDENCE     MOSUNNY   80  56  43 S8        30.00F                  
NEWPORT        SUNNY     78  58  49 SE10      30.01S                  
BLOCK ISLAND   MOSUNNY   76  54  46 E8        30.02S                  
SMITHFIELD     MOSUNNY   83  53  35 S6        30.01F                  
WESTERLY       MOSUNNY   77  56  48 SE12      30.01S                  
$$
 
CTZALL-151800-
CONNECTICUT
  
CITY           SKY/WX    TMP DP  RH WIND       PRES   REMARKS
BRADLEY INTL   PTSUNNY   81  54  39 CALM      30.00F                  
HARTFORD       MOSUNNY   83  55  38 N5        29.98F                  
BRIDGEPORT     PTSUNNY   78  59  51 SE8       29.99F                  
DANBURY        MOSUNNY   81  54  39 E10       30.00F                  
GROTON         MOSUNNY   77  59  53 S12       29.99F                  
NEW HAVEN      PTSUNNY   80  62  54 SE9       30.00S                  
CHESTER        FAIR      81  52  36 VRB7      30.00F                  
MERIDEN        MOSUNNY   82  50  32 NE6       29.99F                  
WILLIMANTIC    MOSUNNY   83  50  31 VRB7      30.00F                  
OXFORD         MOSUNNY   80  52  37 SE8       30.02F                  
$$

MEZ002-015-021-024-NHZ003-005-008-011-012-014-VTZ005-008-151800-
NORTHERN NEW ENGLAND
  
CITY           SKY/WX    TMP DP  RH WIND       PRES   REMARKS
PORTLAND ME    CLOUDY    78  58  49 E8        30.04S                  
BANGOR ME      MOSUNNY   82  56  40 VRB3      30.03F                  
CONCORD NH     CLOUDY    85  50  29 CALM      30.01F                  
MANCHESTER NH  PTSUNNY   83  50  31 VRB3      30.00F                  
NASHUA NH      PTSUNNY   82  52  35 NW5       30.01F                  
PORTSMOUTH NH  PTSUNNY   79  51  37 SE8       30.02F                  
JAFFREY NH     MOSUNNY   80  49  33 CALM      30.04F                  
KEENE NH       MOSUNNY   80  52  37 CALM        N/A                   
BURLINGTON VT  MOSUNNY   81  46  29 N7        30.03F                  
MT. WASHINGTON PTSUNNY   54  45  71 SE5         N/A                   
$$

NYZ052-076-151800-
EASTERN NEW YORK
  
CITY           SKY/WX    TMP DP  RH WIND       PRES   REMARKS
ALBANY         MOSUNNY   81  58  45 VRB3      29.99F                  
NEW YORK CITY  PTSUNNY   82  55  39 NE12      29.97F                  
$$
 
ANZALL-151800-
MARINE OBSERVATIONS
  
STATION/POSITION TIME  TEMP    WIND        PRES    VSBY  WAVE
                       AIR SEA DIR/SP/G                  HT/PER
                 (UTC) (F)     (DEG/KT/KT) (MB)    (MI)  (FT/S)
BOSTON BUOY      NOT AVBL
BUZZARDS BAY     NOT AVBL
NANTUCKET SOUND  NOT AVBL
MASS BAY-STELLWA NOT AVBL
ISLE OF SHOALS   NOT AVBL
S OF BLOCK IS    NOT AVBL
$$

......................KEY.........................
  SKY/WX - SKY CONDITION/PRESENT WEATHER
  TMP    - TEMPERATURE IN FAHRENHEIT
  DWPT   - DEWPOINT IN FAHRENHEIT
  RH     - RELATIVE HUMIDITY IN PERCENT
  WIND   - DIRECTION AND SPEED IN MPH
  PRES   - MEAN SEA LEVEL PRESSURE IN INCHES OF HG
  WCI    - WIND CHILL INDEX
  VSB    - VISIBILITY IN MILES
  HX     - HEAT INDEX
  TC     - TEMPERATURE IN CELSIUS
  VRB    - VARIABLE WIND DIRECTION
  N/A    - NOT AVAILABLE
  
      

Other recent Regional Weather Roundups

Wed Aug 17, 7:10pm

Wed Aug 17, 6:10pm

Wed Aug 17, 5:10pm

Wed Aug 17, 4:10pm

Wed Aug 17, 3:10pm

Wed Aug 17, 2:10pm

Wed Aug 17, 1:10pm

Wed Aug 17, 12:10pm

Wed Aug 17, 11:10am

Wed Aug 17, 10:10am

Wed Aug 17, 9:10am

Wed Aug 17, 8:10am

Wed Aug 17, 7:10am

Wed Aug 17, 6:10am

Wed Aug 17, 5:10am

Wed Aug 17, 4:10am

Wed Aug 17, 3:10am

Wed Aug 17, 2:10am

Wed Aug 17, 1:10am

Wed Aug 17, 12:10am

Tue Aug 16, 11:10pm

Tue Aug 16, 10:10pm

Tue Aug 16, 9:10pm

Tue Aug 16, 8:10pm

Tue Aug 16, 7:10pm

Tue Aug 16, 6:10pm

Tue Aug 16, 5:10pm

Tue Aug 16, 4:10pm

Tue Aug 16, 3:10pm

Tue Aug 16, 2:10pm

Tue Aug 16, 1:10pm

Tue Aug 16, 12:10pm

Tue Aug 16, 11:10am

Tue Aug 16, 10:10am

Tue Aug 16, 9:10am

Tue Aug 16, 8:10am

Tue Aug 16, 7:10am

Tue Aug 16, 6:10am

Tue Aug 16, 5:10am

Tue Aug 16, 4:10am

Tue Aug 16, 3:10am

Tue Aug 16, 2:10am

Tue Aug 16, 1:10am

Tue Aug 16, 12:10am

Mon Aug 15, 11:10pm

Mon Aug 15, 10:10pm

Mon Aug 15, 9:10pm

Mon Aug 15, 8:10pm

Mon Aug 15, 7:10pm

Mon Aug 15, 6:10pm

Mon Aug 15, 5:10pm

Mon Aug 15, 4:10pm

Mon Aug 15, 3:10pm

Mon Aug 15, 2:10pm

Mon Aug 15, 12:10pm

Mon Aug 15, 11:10am

Mon Aug 15, 10:10am

Mon Aug 15, 9:10am

Mon Aug 15, 8:10am

Mon Aug 15, 7:10am

Mon Aug 15, 6:10am

Mon Aug 15, 5:10am

Mon Aug 15, 4:10am

Mon Aug 15, 3:10am

Mon Aug 15, 2:10am

Mon Aug 15, 1:10am

Mon Aug 15, 12:10am

Sun Aug 14, 11:10pm

Sun Aug 14, 10:10pm

Sun Aug 14, 9:10pm

Sun Aug 14, 8:10pm

Sun Aug 14, 7:10pm

Sun Aug 14, 6:10pm

Sun Aug 14, 5:10pm

Sun Aug 14, 4:10pm

Sun Aug 14, 3:10pm

Sun Aug 14, 2:10pm

Sun Aug 14, 1:10pm

Sun Aug 14, 12:10pm

Sun Aug 14, 11:10am

Sun Aug 14, 10:10am

Sun Aug 14, 9:10am

Sun Aug 14, 8:10am

Sun Aug 14, 7:10am

Sun Aug 14, 6:10am

Sun Aug 14, 5:10am

Sun Aug 14, 4:10am

Sun Aug 14, 3:10am

Sun Aug 14, 2:10am

Sun Aug 14, 1:10am

Sun Aug 14, 12:10am

Sat Aug 13, 11:10pm

Sat Aug 13, 10:10pm

Sat Aug 13, 9:10pm

Sat Aug 13, 8:10pm

Sat Aug 13, 7:10pm

Sat Aug 13, 6:10pm

Sat Aug 13, 5:10pm

Sat Aug 13, 4:10pm

Sat Aug 13, 3:10pm

Sat Aug 13, 2:10pm

Sat Aug 13, 1:10pm

Sat Aug 13, 12:10pm

Sat Aug 13, 11:10am

Sat Aug 13, 10:10am

Sat Aug 13, 9:10am

Sat Aug 13, 8:10am

Sat Aug 13, 7:10am

Sat Aug 13, 6:10am

Sat Aug 13, 5:10am

Sat Aug 13, 4:10am

Sat Aug 13, 3:10am

Sat Aug 13, 2:10am

Sat Aug 13, 1:10am

Sat Aug 13, 12:10am

Fri Aug 12, 11:10pm

Fri Aug 12, 10:10pm

Fri Aug 12, 9:10pm

Fri Aug 12, 8:10pm

Fri Aug 12, 7:10pm

Fri Aug 12, 6:10pm

Fri Aug 12, 5:10pm

Fri Aug 12, 4:10pm

Fri Aug 12, 3:10pm

Fri Aug 12, 2:10pm

Fri Aug 12, 1:10pm

Fri Aug 12, 12:10pm

Fri Aug 12, 11:10am

Fri Aug 12, 10:10am

Fri Aug 12, 9:10am

Fri Aug 12, 8:10am

Fri Aug 12, 7:10am

Fri Aug 12, 6:10am

Fri Aug 12, 5:10am

Fri Aug 12, 4:10am

Fri Aug 12, 3:10am

Fri Aug 12, 2:10am

Fri Aug 12, 1:10am

Fri Aug 12, 12:10am

Thu Aug 11, 11:10pm

Thu Aug 11, 10:10pm

Thu Aug 11, 9:10pm

Thu Aug 11, 8:10pm

Thu Aug 11, 7:10pm

Thu Aug 11, 6:10pm

Thu Aug 11, 5:10pm

Thu Aug 11, 4:10pm

Thu Aug 11, 3:10pm

Thu Aug 11, 2:10pm

Thu Aug 11, 1:10pm

Thu Aug 11, 12:10pm

Thu Aug 11, 11:10am

Thu Aug 11, 10:10am

Thu Aug 11, 9:10am

Thu Aug 11, 8:10am

Thu Aug 11, 7:10am

Thu Aug 11, 6:10am

Thu Aug 11, 5:10am

Thu Aug 11, 4:10am

Thu Aug 11, 3:10am

Thu Aug 11, 2:10am

Thu Aug 11, 1:10am

Thu Aug 11, 12:10am

Wed Aug 10, 11:10pm

Wed Aug 10, 10:10pm

Wed Aug 10, 9:10pm

Wed Aug 10, 8:10pm

Meta data:

ID: 6512cb61-3f84-4750-bc72-24487a62e60d
Link: https://api.weather.gov/products/6512cb61-3f84-4750-bc72-24487a62e60d